Tracking 30072 objects as of 14-Jan-2025
HD Live streaming from Space Station
objects crossing your sky now

STARLINK-2603

Track STARLINK-2603 now!
10-day predictions
STARLINK-2603 is classified as:


NORAD ID: 48375
Int'l Code: 2021-038Y
Perigee: 552.8 km
Apogee: 555.8 km
Inclination: 53.1 °
Period: 95.6 minutes
Semi major axis: 6925 km
RCS: Unknown
Launch date: May 4, 2021
Source: United States (US)
Launch site: AIR FORCE EASTERN TEST RANGE (AFETR)
Your satellite tracking list
Your tracking list is empty




NASA's NSSDC Master Catalog

Two Line Element Set (TLE):
1 48375U 21038Y   25014.16905270  .00006616  00000-0  46265-3 0  9998
2 48375  53.0546  74.9199 0002169  73.9724 286.1504 15.06401431204525
Source of the keplerian elements: AFSPC